Wind_Speed
12 13 14 15 17 19 21 22 24 26 27 28 29 29 29 30 30 30 30 29 29 30 30 31 31 32 33 33 34 33 33 32 32 31 30 30 28 27 26 25 25 26 27
9 11 13 15 17 19 21 23 25 26 27 28 28 29 29 29 29 29 29 29 29 29 29 30 31 31 32 32 33 33 33 33 33 33 32 31 30 29 27 26 26 26 27
7 10 13 16 18 20 21 23 24 26 27 28 29 29 30 30 30 30 30 30 30 30 29 30 31 31 31 32 32 32 33 33 34 34 34 33 33 31 30 28 27 27 27
7 10 12 15 16 18 20 21 23 24 25 26 27 28 29 29 30 31 31 31 31 30 30 30 31 31 31 32 32 32 32 33 34 34 34 34 34 34 33 31 30 29 29
7 9 12 14 16 17 18 20 21 22 23 24 25 26 26 27 28 29 30 30 30 30 30 30 31 31 32 32 32 32 32 33 33 34 34 35 36 36 36 35 34 32 32
7 10 12 14 15 17 19 20 22 22 23 24 25 25 25 26 27 27 28 29 29 30 30 31 31 32 33 33 34 34 34 34 33 33 34 35 37 37 37 38 37 36 34
9 11 12 14 16 18 20 22 23 24 24 25 26 26 26 26 27 27 28 29 30 31 32 33 34 35 35 36 36 36 36 36 35 35 35 35 37 38 38 39 40 39 38
11 12 14 15 17 19 22 23 25 26 26 27 27 27 27 27 28 29 30 31 32 33 35 36 37 37 38 38 38 38 38 38 38 38 37 37 37 38 39 40 41 41 41
12 13 15 17 19 21 24 26 27 28 29 29 29 30 30 30 31 32 32 33 34 35 37 38 39 40 40 39 39 39 39 39 39 39 39 39 39 39 40 41 42 43 43
14 15 17 19 22 24 26 29 30 30 31 31 32 33 33 34 34 35 36 37 38 38 39 39 40 40 40 40 39 39 39 39 40 40 41 41 41 41 42 42 43 44 44
16 18 20 22 24 26 29 30 31 32 32 33 34 35 36 36 37 38 39 39 40 40 40 40 39 39 39 39 38 38 38 38 38 39 40 42 43 44 44 44 44 45 46
19 20 22 24 26 28 30 31 32 33 34 35 36 37 38 38 39 40 41 42 42 42 41 40 40 39 38 37 36 37 37 37 37 38 40 41 43 45 46 47 47 47 47
21 22 24 25 27 28 30 32 33 34 35 36 37 38 39 40 41 42 43 44 44 43 42 42 40 39 37 36 36 36 36 37 37 38 39 40 42 44 46 47 48 49 49
23 24 25 26 28 29 31 33 35 36 37 38 39 40 41 42 43 44 45 46 45 45 44 43 41 39 37 36 36 35 35 36 38 39 40 41 43 44 46 47 49 50 51
24 24 25 27 29 31 33 35 37 37 39 40 41 41 42 43 44 45 46 47 46 46 45 44 42 40 38 37 36 36 36 37 38 40 41 43 44 46 47 49 51 52 53
24 25 27 29 31 34 36 38 39 39 40 41 42 42 43 44 45 46 47 47 47 47 46 44 42 39 38 37 37 37 37 37 38 39 41 43 44 46 48 50 52 54 55
26 27 29 31 34 36 38 40 40 41 41 42 42 43 45 46 47 48 48 48 47 47 46 44 42 40 39 39 38 38 37 37 38 39 41 43 45 47 48 50 52 55 57
27 29 31 34 36 38 40 41 41 42 42 43 43 45 46 47 48 49 49 48 48 47 45 43 42 40 40 39 39 39 39 39 39 40 41 43 45 47 49 50 51 54 57
29 31 33 36 38 40 41 42 42 43 43 44 45 46 47 48 49 49 49 48 47 46 45 43 42 40 40 40 39 39 39 38 38 39 39 40 43 46 49 50 51 53 56
31 33 35 38 40 41 42 42 43 43 44 45 47 48 49 50 49 49 49 48 47 45 44 43 42 40 39 38 38 38 36 35 35 36 36 38 40 43 46 49 50 52 54
33 35 38 40 41 42 43 43 44 44 45 47 49 50 51 51 50 49 49 47 45 44 43 42 41 40 38 37 37 35 34 33 32 32 33 34 35 37 41 45 48 50 54
36 38 40 41 43 43 43 45 46 47 49 50 52 52 52 51 50 49 48 46 44 43 42 41 40 39 37 36 35 33 32 31 30 29 30 30 31 33 35 38 42 47 52
38 40 41 42 43 43 45 46 48 50 52 53 54 54 54 52 50 48 46 44 43 41 40 40 38 36 36 35 33 32 30 28 27 27 26 26 26 26 27 30 34 40 46
39 40 41 42 43 44 46 48 50 52 54 55 55 56 54 52 49 46 44 42 41 40 39 38 36 35 35 34 32 29 26 26 25 24 22 21 20 19 19 23 27 33 39
40 40 42 43 45 46 48 50 52 54 56 56 57 56 54 50 47 45 43 41 40 39 38 36 35 34 34 32 30 27 25 24 23 21 19 18 16 14 13 15 20 25 32
40 41 43 45 47 48 50 52 55 57 57 58 57 55 51 48 45 43 42 41 40 38 37 35 34 33 32 30 28 26 23 22 20 19 17 16 13 9 7 9 14 19 26
Wind_Direction
290 300 307 311 313 314 315 316 316 316 314 313 311 310 308 307 305 303 301 299 298 296 294 291 289 286 284 282 280 277 275 272 270 268 266 264 262 261 260 255 247 241 238
306 314 318 321 322 322 322 322 320 318 317 315 314 312 310 308 306 303 301 300 298 297 294 292 290 288 285 283 280 277 274 271 268 265 263 261 260 257 256 252 247 242 239
323 327 328 327 326 326 325 322 320 318 316 314 311 309 307 305 303 302 301 299 297 296 294 292 290 288 286 283 280 277 274 271 268 264 261 258 256 255 252 249 245 243 239
331 331 329 328 327 325 323 320 318 317 315 313 310 308 306 305 304 303 302 301 300 298 296 294 292 290 287 285 282 279 275 271 267 263 259 256 254 251 249 246 243 240 238
324 326 327 327 326 325 325 325 324 323 323 322 320 317 314 312 310 309 307 306 304 302 300 297 295 292 289 286 284 281 277 273 268 263 259 255 252 249 246 244 242 239 236
315 320 324 326 328 331 331 332 332 331 331 330 330 328 325 323 320 318 316 314 311 309 306 302 298 294 291 287 284 281 277 273 268 263 259 255 251 247 245 243 241 239 236
311 318 325 330 334 337 339 340 340 340 339 338 336 335 333 330 328 325 323 320 316 313 309 305 300 296 291 288 284 280 276 271 267 263 258 254 250 247 243 241 240 238 236
310 318 325 332 337 340 343 345 345 343 342 340 339 338 336 333 331 328 325 323 319 315 311 307 303 298 293 288 284 279 274 270 266 262 258 253 249 246 243 240 239 237 235
312 322 330 335 340 343 345 346 345 343 341 340 339 338 337 335 333 331 328 325 321 317 313 308 304 299 294 289 285 279 274 269 265 261 257 253 249 246 243 240 238 236 235
320 328 335 339 342 345 345 344 343 341 340 339 338 337 337 336 334 333 330 327 324 320 315 310 306 300 295 290 285 280 275 270 264 260 256 252 249 246 243 240 238 236 234
328 334 338 341 342 343 342 340 339 338 337 337 336 336 336 335 334 333 331 328 326 322 318 314 309 303 298 293 287 281 276 270 265 261 257 253 250 247 245 241 239 236 234
333 337 338 340 340 339 337 336 335 335 334 334 334 334 334 333 332 331 330 328 326 324 321 316 312 307 301 295 289 283 278 272 267 263 259 254 251 248 246 243 240 237 235
335 336 336 336 335 334 333 332 332 332 332 332 332 332 331 331 330 329 329 328 327 325 322 318 313 308 302 297 291 285 280 275 270 265 260 256 252 249 246 244 241 238 235
333 332 331 331 331 331 331 331 331 331 330 331 331 330 330 329 328 328 327 327 326 324 322 318 314 309 303 298 292 287 282 277 272 267 263 258 253 249 246 244 241 239 236
328 327 327 328 329 330 330 331 330 330 329 329 329 329 328 327 327 326 326 325 324 323 321 318 315 310 305 299 295 290 285 280 275 270 266 261 256 252 248 245 242 239 236
325 326 327 328 329 330 330 330 329 328 328 328 328 328 327 326 325 324 324 323 322 322 320 318 315 311 306 302 298 294 289 284 279 273 268 264 259 254 249 245 242 239 236
324 325 327 328 328 329 329 328 328 327 327 327 328 328 327 325 324 323 322 322 321 321 320 319 316 312 308 304 301 297 292 287 282 277 272 267 262 257 252 247 242 239 236
323 324 325 326 327 327 327 326 325 325 326 326 327 327 326 324 323 322 321 321 320 320 320 319 316 313 309 306 302 299 295 291 286 280 274 270 264 259 254 249 244 240 236
321 322 323 324 324 324 325 324 324 324 325 326 326 326 326 324 323 321 320 320 320 321 320 319 317 314 311 308 305 302 299 295 289 284 278 273 266 260 255 250 246 240 235
319 320 321 321 322 323 323 324 324 325 325 326 326 325 325 324 322 321 320 320 321 321 321 320 318 316 313 311 308 306 303 299 294 288 283 277 270 263 256 250 245 239 234
316 317 319 320 321 323 323 324 324 325 326 326 326 325 325 323 322 321 321 321 321 322 322 322 320 318 317 314 311 309 306 303 298 293 288 283 275 267 259 252 244 237 232
314 316 317 319 321 323 324 325 325 324 325 325 325 325 324 323 321 321 322 322 322 323 324 324 323 321 320 318 316 312 310 308 303 298 295 289 282 272 262 252 243 235 230
313 315 317 319 321 323 325 326 326 325 325 324 324 325 324 324 323 323 323 323 324 324 325 325 324 323 322 321 319 316 314 312 310 306 304 298 290 279 265 251 240 232 227
312 315 317 319 320 322 324 325 325 325 325 324 323 324 325 325 324 324 325 325 325 326 326 326 326 324 323 323 322 320 317 317 316 315 312 309 300 288 268 249 236 230 224
312 314 317 319 320 321 323 324 324 324 324 323 323 325 326 326 325 325 326 326 326 326 328 328 327 326 325 324 324 322 320 319 321 322 321 318 309 297 274 248 233 225 218
309 312 315 317 318 318 320 321 322 323 323 323 324 325 327 327 327 327 326 327 327 327 329 330 329 328 328 328 327 324 322 321 323 327 328 330 325 309 275 241 224 213 208
Height
5856 5856 5855 5854 5852 5850 5849 5846 5844 5841 5839 5836 5834 5832 5829 5827 5824 5823 5821 5819 5817 5814 5812 5811 5809 5807 5806 5805 5804 5804 5804 5804 5805 5806 5806 5807 5808 5809 5809 5810 5812 5814 5816
5854 5854 5853 5851 5849 5847 5845 5842 5839 5837 5834 5831 5828 5826 5823 5821 5818 5816 5814 5812 5810 5807 5805 5803 5801 5799 5798 5796 5796 5795 5796 5795 5796 5797 5798 5799 5801 5801 5803 5803 5805 5807 5809
5853 5852 5851 5849 5847 5844 5842 5839 5836 5833 5829 5826 5823 5820 5817 5814 5812 5809 5806 5804 5802 5800 5798 5796 5794 5791 5790 5788 5787 5787 5787 5786 5787 5788 5789 5790 5791 5793 5795 5796 5798 5800 5802
5852 5851 5849 5848 5845 5843 5840 5837 5834 5830 5826 5822 5818 5815 5811 5808 5805 5802 5799 5796 5794 5792 5790 5788 5786 5783 5781 5780 5779 5778 5777 5777 5777 5778 5779 5781 5783 5784 5787 5789 5791 5793 5795
5851 5850 5848 5846 5844 5841 5838 5834 5830 5826 5822 5818 5813 5809 5805 5802 5798 5795 5792 5789 5786 5784 5781 5779 5777 5775 5773 5771 5770 5769 5768 5768 5768 5768 5769 5771 5773 5775 5778 5780 5783 5785 5788
5851 5849 5847 5845 5841 5838 5834 5830 5826 5821 5817 5812 5808 5804 5800 5796 5792 5788 5785 5781 5778 5775 5773 5770 5768 5766 5764 5762 5760 5759 5758 5758 5758 5758 5759 5761 5763 5765 5768 5771 5773 5777 5780
5849 5847 5845 5842 5838 5834 5830 5826 5821 5816 5812 5807 5803 5799 5795 5791 5787 5783 5779 5775 5771 5768 5764 5762 5759 5756 5754 5752 5750 5749 5748 5748 5748 5748 5749 5750 5752 5754 5757 5761 5763 5767 5771
5847 5845 5842 5838 5835 5830 5826 5821 5816 5812 5807 5803 5798 5794 5790 5785 5781 5777 5773 5769 5765 5760 5756 5752 5749 5746 5743 5740 5738 5737 5736 5736 5736 5737 5738 5739 5741 5743 5746 5750 5754 5757 5761
5845 5842 5838 5834 5830 5825 5820 5816 5811 5807 5802 5798 5793 5789 5784 5780 5775 5771 5766 5762 5757 5753 5748 5743 5738 5734 5731 5728 5726 5724 5724 5723 5723 5724 5726 5727 5729 5732 5735 5739 5743 5747 5751
5841 5837 5833 5828 5824 5819 5815 5811 5806 5802 5797 5793 5788 5783 5779 5774 5769 5764 5759 5754 5749 5743 5738 5733 5728 5723 5719 5716 5713 5712 5711 5711 5711 5712 5713 5715 5717 5719 5723 5727 5731 5735 5740
5835 5831 5827 5822 5818 5814 5810 5806 5802 5797 5793 5788 5783 5777 5772 5767 5761 5756 5751 5745 5740 5734 5728 5722 5717 5712 5707 5704 5701 5699 5698 5697 5698 5698 5700 5702 5704 5707 5710 5714 5718 5723 5728
5829 5825 5821 5817 5813 5809 5805 5801 5797 5792 5788 5782 5777 5771 5765 5760 5754 5748 5743 5737 5731 5724 5718 5712 5706 5701 5696 5692 5689 5687 5685 5685 5685 5686 5687 5689 5691 5694 5697 5701 5705 5710 5715
5823 5819 5816 5812 5808 5805 5801 5796 5792 5787 5782 5776 5770 5764 5758 5752 5746 5740 5734 5727 5721 5714 5708 5701 5696 5690 5685 5681 5678 5675 5674 5673 5672 5673 5674 5675 5677 5680 5683 5687 5691 5697 5702
5818 5815 5811 5808 5804 5800 5795 5791 5786 5780 5775 5769 5763 5757 5751 5744 5738 5732 5725 5718 5711 5704 5697 5691 5685 5679 5675 5670 5667 5664 5662 5660 5659 5659 5660 5661 5663 5666 5669 5672 5677 5682 5688
5814 5810 5807 5803 5799 5794 5789 5784 5779 5774 5768 5762 5756 5750 5743 5736 5730 5723 5716 5708 5701 5694 5687 5680 5674 5668 5663 5659 5655 5652 5650 5648 5646 5645 5645 5646 5647 5650 5653 5657 5661 5666 5673
5809 5806 5801 5797 5793 5788 5783 5778 5773 5767 5761 5755 5748 5742 5735 5728 5721 5714 5706 5699 5691 5684 5676 5670 5663 5657 5652 5647 5643 5639 5637 5634 5632 5631 5630 5630 5631 5633 5636 5640 5644 5650 5656
5804 5800 5796 5791 5787 5782 5777 5772 5766 5760 5754 5747 5741 5734 5727 5719 5712 5704 5697 5689 5681 5673 5666 5658 5652 5646 5640 5635 5630 5626 5623 5620 5618 5616 5614 5613 5614 5615 5618 5622 5627 5632 5639
5798 5794 5790 5786 5781 5776 5771 5765 5759 5753 5746 5739 5732 5725 5718 5710 5703 5695 5687 5679 5671 5663 5655 5647 5641 5634 5628 5623 5618 5613 5609 5606 5602 5600 5598 5597 5596 5597 5599 5603 5608 5614 5621
5793 5789 5784 5779 5775 5770 5764 5758 5752 5745 5738 5731 5724 5717 5709 5701 5693 5685 5676 5668 5660 5652 5644 5636 5629 5623 5617 5611 5605 5600 5595 5591 5587 5583 5581 5579 5579 5578 5579 5584 5589 5595 5602
5787 5782 5778 5773 5768 5763 5757 5751 5744 5737 5730 5723 5716 5708 5700 5692 5683 5675 5666 5658 5650 5641 5633 5626 5618 5612 5606 5599 5593 5587 5582 5578 5573 5569 5565 5563 5561 5560 5560 5564 5569 5576 5583
5780 5776 5771 5766 5761 5755 5749 5743 5736 5729 5722 5715 5707 5699 5691 5682 5673 5665 5656 5648 5640 5632 5624 5616 5608 5601 5595 5589 5582 5576 5570 5565 5560 5556 5551 5548 5545 5543 5542 5544 5550 5556 5562
5773 5769 5764 5759 5753 5747 5741 5734 5728 5721 5713 5706 5698 5689 5681 5672 5664 5655 5646 5638 5630 5622 5614 5606 5599 5591 5585 5579 5572 5565 5560 5554 5549 5544 5539 5534 5530 5527 5526 5527 5531 5536 5543
5766 5761 5756 5751 5745 5739 5732 5726 5719 5711 5704 5696 5688 5679 5670 5662 5653 5645 5637 5628 5621 5613 5606 5598 5590 5583 5576 5570 5563 5557 5550 5544 5539 5534 5528 5523 5518 5514 5512 5513 5516 5520 5527
5758 5753 5748 5742 5736 5730 5724 5717 5710 5702 5695 5687 5678 5670 5661 5652 5643 5635 5627 5620 5612 5605 5598 5590 5583 5576 5569 5562 5555 5549 5543 5537 5531 5526 5520 5514 5509 5505 5503 5503 5505 5510 5516
5749 5744 5739 5733 5727 5721 5715 5708 5701 5693 5685 5677 5668 5660 5651 5642 5634 5626 5618 5612 5605 5597 5591 5583 5576 5569 5562 5556 5549 5542 5537 5531 5526 5520 5514 5509 5504 5500 5497 5497 5499 5502 5507
5740 5734 5729 5724 5718 5712 5705 5699 5692 5684 5676 5667 5659 5650 5642 5633 5626 5618 5611 5603 5597 5590 5583 5577 5570 5563 5556 5550 5544 5538 5532 5527 5522 5516 5511 5506 5502 5498 5496 5495 5496 5499 5504